• în România
  • Lista ţărilor
  • Pe 7 zile
  • Temperatura apei
  • Hartă satelitară
  • Meteo pe hartă
  • Widget-uri
  • user-avatar
    Intrare

    Meteo pe oră la Medulin

    Astăzi, 17 Octombrie, Marţi

    Timp Temperatura Precipitaţii Vânt Presiune Umiditate
    00:00 +19°C° 0 mm 1 m/s 766 mmHg 69%
    01:00 +19°C° 0 mm 1 m/s 766 mmHg 68%
    02:00 +19°C° 0 mm 1 m/s 766 mmHg 67%
    03:00 +19°C° 0 mm 1 m/s 765 mmHg 66%
    04:00 +19°C° 0 mm 1 m/s 765 mmHg 65%
    05:00 +19°C° 0 mm 1 m/s 765 mmHg 63%
    06:00 +19°C° 0 mm 1 m/s 765 mmHg 61%
    07:00 +19°C° 0 mm 1 m/s 765 mmHg 58%
    08:00 +21°C° 0 mm 1 m/s 765 mmHg 53%
    09:00 +23°C° 0 mm 1 m/s 765 mmHg 47%
    10:00 +25°C° 0 mm 1 m/s 765 mmHg 42%
    11:00 +25°C° 0 mm 1 m/s 765 mmHg 42%
    12:00 +26°C° 0 mm 1 m/s 765 mmHg 43%
    13:00 +26°C° 0 mm 2 m/s 765 mmHg 43%
    14:00 +26°C° 0 mm 1 m/s 764 mmHg 47%
    15:00 +25°C° 0 mm 1 m/s 764 mmHg 52%
    16:00 +24°C° 0 mm 1 m/s 763 mmHg 56%
    17:00 +23°C° 0 mm 1 m/s 763 mmHg 59%
    18:00 +22°C° 0 mm 1 m/s 763 mmHg 62%
    19:00 +20°C° 0 mm 1 m/s 763 mmHg 65%
    20:00 +20°C° 0 mm 1 m/s 763 mmHg 64%
    21:00 +20°C° 0 mm 1 m/s 763 mmHg 63%
    22:00 +19°C° 0 mm 1 m/s 763 mmHg 63%
    23:00 +19°C° 0 mm 1 m/s 763 mmHg 61%

    Mâine, 18 Octombrie, Miercuri

    Timp Temperatura Precipitaţii Vânt Presiune Umiditate
    00:00 +19°C° 0 mm 1 m/s 763 mmHg 60%
    01:00 +18°C° 0 mm 1 m/s 762 mmHg 59%
    02:00 +18°C° 0 mm 1 m/s 762 mmHg 58%
    03:00 +18°C° 0 mm 1 m/s 762 mmHg 56%
    04:00 +18°C° 0 mm 1 m/s 761 mmHg 55%
    05:00 +18°C° 0 mm 1 m/s 761 mmHg 55%
    06:00 +18°C° 0 mm 1 m/s 761 mmHg 54%
    07:00 +18°C° 0 mm 1 m/s 761 mmHg 54%
    08:00 +20°C° 0 mm 1 m/s 761 mmHg 49%
    09:00 +22°C° 0 mm 1 m/s 761 mmHg 44%
    10:00 +24°C° 0 mm 1 m/s 761 mmHg 39%
    11:00 +24°C° 0 mm 1 m/s 761 mmHg 39%
    12:00 +25°C° 0 mm 1 m/s 761 mmHg 39%
    13:00 +25°C° 0 mm 1 m/s 760 mmHg 39%
    14:00 +25°C° 0 mm 1 m/s 760 mmHg 43%
    15:00 +24°C° 0 mm 1 m/s 760 mmHg 47%
    16:00 +24°C° 0 mm 1 m/s 760 mmHg 50%
    17:00 +22°C° 0 mm 1 m/s 760 mmHg 54%
    18:00 +21°C° 0 mm 1 m/s 760 mmHg 57%
    19:00 +19°C° 0 mm 1 m/s 760 mmHg 61%
    20:00 +19°C° 0 mm 1 m/s 760 mmHg 60%
    21:00 +19°C° 0 mm 1 m/s 760 mmHg 60%
    22:00 +19°C° 0 mm 1 m/s 760 mmHg 60%
    23:00 +18°C° 0 mm 1 m/s 760 mmHg 60%

    Poimâine, 19 Octombrie, Joi

    Timp Temperatura Precipitaţii Vânt Presiune Umiditate
    00:00 +18°C° 0 mm 1 m/s 760 mmHg 60%
    01:00 +18°C° 0 mm 1 m/s 760 mmHg 60%
    02:00 +18°C° 0 mm 1 m/s 760 mmHg 60%
    03:00 +16°C° 0 mm 1 m/s 760 mmHg 60%
    04:00 +16°C° 0 mm 1 m/s 759 mmHg 60%
    05:00 +16°C° 0 mm 1 m/s 759 mmHg 60%
    06:00 +16°C° 0 mm 2 m/s 759 mmHg 59%
    07:00 +17°C° 0 mm 2 m/s 760 mmHg 59%
    08:00 +18°C° 0 mm 2 m/s 760 mmHg 54%
    09:00 +20°C° 0 mm 2 m/s 760 mmHg 50%
    10:00 +23°C° 0 mm 1 m/s 760 mmHg 45%
    11:00 +24°C° 0 mm 2 m/s 760 mmHg 45%
    12:00 +24°C° 0 mm 2 m/s 759 mmHg 45%
    13:00 +25°C° 0 mm 2 m/s 759 mmHg 44%
    14:00 +24°C° 0 mm 2 m/s 759 mmHg 48%
    15:00 +24°C° 0 mm 1 m/s 759 mmHg 51%
    16:00 +23°C° 0 mm 1 m/s 759 mmHg 54%
    17:00 +22°C° 0 mm 1 m/s 759 mmHg 59%
    18:00 +20°C° 0 mm 1 m/s 759 mmHg 64%
    19:00 +19°C° 0 mm 1 m/s 759 mmHg 70%
    20:00 +19°C° 0 mm 1 m/s 760 mmHg 70%
    21:00 +18°C° 0 mm 1 m/s 760 mmHg 71%
    22:00 +18°C° 0 mm 1 m/s 760 mmHg 71%
    23:00 +18°C° 0 mm 1 m/s 760 mmHg 71%

    20 Octombrie, Vineri

    Timp Temperatura Precipitaţii Vânt Presiune Umiditate
    00:00 +18°C° 0 mm 1 m/s 760 mmHg 71%
    01:00 +16°C° 0 mm 2 m/s 760 mmHg 71%
    02:00 +16°C° 0 mm 2 m/s 760 mmHg 71%
    03:00 +16°C° 0 mm 2 m/s 760 mmHg 70%
    04:00 +16°C° 0 mm 2 m/s 760 mmHg 70%
    05:00 +16°C° 0 mm 2 m/s 760 mmHg 69%
    06:00 +16°C° 0 mm 2 m/s 760 mmHg 68%
    07:00 +16°C° 0 mm 2 m/s 760 mmHg 66%
    08:00 +18°C° 0 mm 2 m/s 761 mmHg 61%
    09:00 +20°C° 0 mm 2 m/s 761 mmHg 55%
    10:00 +23°C° 0 mm 1 m/s 761 mmHg 50%
    11:00 +23°C° 0 mm 2 m/s 761 mmHg 49%
    12:00 +23°C° 0 mm 2 m/s 761 mmHg 48%
    13:00 +24°C° 0 mm 2 m/s 761 mmHg 48%
    14:00 +23°C° 0 mm 2 m/s 761 mmHg 51%
    15:00 +23°C° 0 mm 1 m/s 760 mmHg 55%
    16:00 +23°C° 0 mm 1 m/s 760 mmHg 58%
    17:00 +21°C° 0 mm 1 m/s 761 mmHg 65%
    18:00 +20°C° 0 mm 1 m/s 761 mmHg 71%
    19:00 +18°C° 0 mm 1 m/s 761 mmHg 77%
    20:00 +18°C° 0 mm 1 m/s 762 mmHg 77%
    21:00 +18°C° 0 mm 1 m/s 762 mmHg 77%
    22:00 +16°C° 0 mm 1 m/s 762 mmHg 77%
    23:00 +16°C° 0 mm 1 m/s 762 mmHg 76%

    21 Octombrie, Sâmbătă

    Timp Temperatura Precipitaţii Vânt Presiune Umiditate
    00:00 +16°C° 0 mm 1 m/s 762 mmHg 75%
    01:00 +16°C° 0 mm 1 m/s 762 mmHg 74%
    02:00 +15°C° 0 mm 1 m/s 762 mmHg 72%
    03:00 +15°C° 0 mm 1 m/s 762 mmHg 71%
    04:00 +15°C° 0 mm 1 m/s 762 mmHg 69%
    05:00 +15°C° 0 mm 1 m/s 762 mmHg 66%
    06:00 +15°C° 0 mm 1 m/s 762 mmHg 64%
    07:00 +15°C° 0 mm 1 m/s 762 mmHg 62%
    08:00 +18°C° 0 mm 1 m/s 762 mmHg 56%
    09:00 +20°C° 0 mm 1 m/s 762 mmHg 50%
    10:00 +22°C° 0 mm 1 m/s 762 mmHg 44%
    11:00 +22°C° 0 mm 1 m/s 762 mmHg 44%
    12:00 +23°C° 0 mm 1 m/s 761 mmHg 45%
    13:00 +24°C° 0 mm 2 m/s 761 mmHg 45%
    14:00 +23°C° 0 mm 2 m/s 761 mmHg 49%
    15:00 +23°C° 0 mm 2 m/s 760 mmHg 53%
    16:00 +21°C° 0 mm 2 m/s 760 mmHg 57%
    17:00 +20°C° 0 mm 2 m/s 760 mmHg 63%
    18:00 +19°C° 0 mm 1 m/s 761 mmHg 69%
    19:00 +18°C° 0 mm 1 m/s 761 mmHg 75%
    20:00 +18°C° 0 mm 1 m/s 761 mmHg 75%
    21:00 +16°C° 0 mm 1 m/s 761 mmHg 75%
    22:00 +16°C° 0 mm 1 m/s 761 mmHg 74%
    23:00 +16°C° 0 mm 1 m/s 761 mmHg 72%

    22 Octombrie, Duminică

    Timp Temperatura Precipitaţii Vânt Presiune Umiditate
    00:00 +16°C° 0 mm 1 m/s 761 mmHg 70%
    01:00 +15°C° 0 mm 1 m/s 760 mmHg 68%
    02:00 +15°C° 0 mm 1 m/s 760 mmHg 66%
    03:00 +15°C° 0 mm 1 m/s 760 mmHg 64%
    04:00 +15°C° 0 mm 1 m/s 760 mmHg 62%
    05:00 +15°C° 0 mm 1 m/s 760 mmHg 62%
    06:00 +15°C° 0 mm 1 m/s 759 mmHg 61%
    07:00 +16°C° 0 mm 1 m/s 759 mmHg 60%
    08:00 +18°C° 0 mm 1 m/s 759 mmHg 56%
    09:00 +20°C° 0 mm 1 m/s 759 mmHg 53%
    10:00 +21°C° 0 mm 2 m/s 759 mmHg 49%
    11:00 +21°C° 0 mm 2 m/s 759 mmHg 49%
    12:00 +23°C° 0 mm 2 m/s 758 mmHg 50%
    13:00 +24°C° 0 mm 2 m/s 758 mmHg 50%
    14:00 +22°C° 0 mm 3 m/s 757 mmHg 54%
    15:00 +22°C° 0 mm 3 m/s 757 mmHg 57%
    16:00 +21°C° 0 mm 3 m/s 757 mmHg 61%
    17:00 +20°C° 0,1 mm 3 m/s 757 mmHg 66%
    18:00 +19°C° 0,1 mm 3 m/s 757 mmHg 70%
    19:00 +18°C° 0,1 mm 3 m/s 757 mmHg 75%
    20:00 +18°C° 0,2 mm 3 m/s 757 mmHg 75%
    21:00 +18°C° 0,2 mm 3 m/s 757 mmHg 75%
    22:00 +18°C° 0,2 mm 3 m/s 757 mmHg 75%
    23:00 +18°C° 0,6 mm 4 m/s 757 mmHg 76%
    Arată mai mult